Theta_e
342 341 337 336 335 337 338 338 337 334 333 332 326 321 323 324 329 330 331 331 331 331 330 330 329 330 329 329 329 328 328 328 329
341 339 336 334 334 336 337 337 336 333 331 328 318 320 321 326 329 330 331 331 331 330 330 329 329 330 329 329 328 328 328 327 327
340 337 334 334 334 336 338 337 333 329 325 317 318 320 322 326 329 330 330 330 330 330 329 329 329 329 328 328 328 328 327 327 327
339 335 332 334 333 336 336 332 329 326 317 316 318 320 320 323 327 329 329 330 330 329 329 329 328 328 328 327 327 327 326 327 326
335 332 333 334 333 334 334 330 326 316 314 315 317 318 319 321 324 329 329 330 329 329 328 328 327 327 327 326 326 326 326 325 325
331 333 335 333 332 333 331 327 323 320 315 315 316 316 318 321 326 328 329 329 329 328 328 327 327 326 326 325 325 325 324 324 324
331 332 335 333 331 330 328 326 325 325 320 317 317 317 319 321 325 328 328 329 328 327 327 326 326 325 325 324 324 324 323 323 323
332 334 335 331 328 329 328 326 326 326 326 323 320 320 320 321 323 327 328 329 328 326 326 325 323 325 324 324 323 323 322 321 321
332 336 336 331 328 327 326 326 327 327 327 327 326 323 323 322 322 324 325 327 328 326 325 324 324 324 324 323 321 319 318 318 318
331 336 335 332 330 327 326 326 327 328 328 327 327 327 326 326 324 323 323 324 325 325 325 324 324 324 324 321 319 320 319 317 314
326 331 335 333 331 328 326 326 328 328 328 328 328 328 327 327 326 325 325 324 323 324 326 326 326 325 325 323 319 318 317 315 313
332 330 331 332 331 329 324 326 327 328 328 328 328 327 327 327 327 326 326 325 324 324 328 328 327 327 326 325 322 318 317 317 316
332 334 332 330 330 328 323 325 326 328 328 328 327 327 327 327 327 327 326 326 325 325 325 328 327 327 327 326 324 322 322 322 320
330 332 332 330 329 326 323 324 326 328 328 327 327 325 325 326 325 325 325 326 325 325 325 325 326 327 326 327 327 326 324 323 323
328 329 330 328 326 324 324 326 327 327 327 327 325 325 324 323 323 323 323 324 324 325 325 325 325 325 326 326 328 329 327 327 325
327 327 326 325 325 324 325 326 325 327 327 326 327 328 328 328 327 326 325 322 322 323 325 325 325 325 325 326 326 326 325 325 326
326 325 325 325 325 324 323 325 328 328 328 328 326 330 326 324 326 326 325 324 323 322 323 323 324 325 325 325 326 325 325 325 325
327 327 325 322 321 320 322 327 329 329 329 328 329 328 328 323 323 325 324 324 324 324 323 322 323 324 325 325 326 325 325 325 324
331 331 330 328 325 327 328 330 330 330 330 328 327 328 324 329 329 325 325 324 324 324 323 322 323 325 326 325 325 325 325 325 324
334 333 332 332 332 331 331 331 331 330 329 329 328 327 326 325 325 330 325 324 324 323 323 324 325 325 325 325 325 325 324 324 323
Wind_Speed
27 30 29 27 25 24 24 23 20 20 17 16 14 15 16 18 18 17 18 17 18 18 20 20 19 19 19 19 20 19 19 20 20
28 28 27 27 25 23 21 22 19 17 15 14 16 16 17 19 18 17 16 17 17 18 18 18 19 18 18 18 18 18 19 19 18
27 27 26 27 25 23 23 22 18 16 15 16 17 17 18 19 18 17 15 16 16 16 17 17 17 17 17 17 18 17 17 17 17
26 26 27 25 24 23 21 20 17 15 16 17 17 17 17 18 17 15 14 15 15 15 16 16 15 16 16 16 16 16 15 15 16
25 27 28 25 24 23 21 19 17 17 17 17 17 17 16 17 17 13 13 14 14 14 14 14 14 15 14 15 14 14 14 14 14
26 28 26 25 24 23 22 19 19 18 17 16 16 15 15 15 13 11 13 12 12 12 13 13 13 13 13 13 12 12 12 12 13
25 32 26 25 24 24 21 19 19 18 17 16 14 13 13 13 11 10 11 10 10 11 11 12 12 11 11 11 11 11 10 11 11
27 31 26 26 24 22 21 20 18 16 15 14 13 12 11 11 11 9 9 8 9 9 9 9 9 9 9 9 9 9 9 9 8
27 27 28 26 24 23 22 20 17 13 13 12 11 10 10 9 8 8 8 7 7 7 7 7 7 7 7 7 7 7 7 7 7
27 28 30 28 24 22 21 18 15 13 11 9 8 8 7 7 6 6 6 5 5 5 5 5 5 5 5 5 4 4 5 4 5
30 33 30 28 24 21 19 18 15 12 10 7 6 8 6 5 5 5 5 5 4 4 4 4 4 4 4 3 3 3 2 2 3
30 31 30 29 25 21 20 18 15 11 8 6 6 7 8 7 7 6 6 6 5 5 5 5 5 4 4 4 3 2 2 1 1
29 28 27 27 26 22 20 18 16 12 9 8 7 7 9 9 10 10 10 9 8 8 7 8 7 7 7 6 5 1 1 1 3
29 28 26 25 24 22 20 19 16 13 10 10 9 9 10 11 12 12 13 12 12 11 10 10 10 10 9 9 10 9 8 7 7
29 28 27 25 24 22 20 19 15 12 9 9 8 10 12 14 15 15 16 16 15 15 14 13 14 14 14 12 13 13 12 14 13
30 28 27 26 25 23 20 19 15 12 8 6 8 13 16 19 20 20 19 19 17 17 18 17 17 17 16 16 15 14 12 11 13
29 29 28 27 25 22 20 18 15 13 11 4 2 2 3 10 18 22 23 22 18 18 18 19 19 18 18 19 17 17 15 15 14
29 27 26 25 24 24 23 21 19 13 14 16 5 1 3 3 3 7 14 24 22 19 19 19 17 17 18 17 18 18 16 15 17
28 25 23 22 23 22 23 22 22 20 16 14 20 16 4 3 4 3 4 9 19 19 18 17 17 16 16 15 18 18 16 16 16
26 24 22 21 21 22 21 22 21 22 17 17 9 10 15 16 8 8 7 8 7 13 16 14 15 15 13 13 15 17 18 16 16
Wind_Direction
147 145 147 145 143 142 137 131 129 126 123 119 114 117 117 111 101 96 92 93 94 92 91 91 90 87 85 83 82 80 79 78 76
150 152 148 146 143 142 141 139 134 129 124 120 118 117 117 109 102 98 95 97 97 94 94 93 92 89 87 84 82 81 79 77 75
155 153 149 149 148 141 137 140 134 129 124 122 120 119 117 110 104 102 99 102 99 97 96 94 93 91 89 85 83 80 78 78 75
156 154 154 153 150 146 141 138 134 130 125 123 121 120 117 112 110 106 102 105 103 102 100 98 96 93 91 87 85 83 82 79 77
157 155 154 156 149 147 148 141 136 129 126 124 123 120 118 114 114 107 113 111 108 107 104 102 99 96 94 92 90 87 82 80 76
157 155 158 158 152 149 147 143 134 126 123 123 122 121 118 116 113 108 115 112 110 108 108 105 100 98 95 94 91 88 85 81 79
158 158 161 159 153 152 149 143 137 130 127 126 123 120 118 115 113 111 116 114 114 113 113 109 108 107 107 106 101 96 91 87 86
157 160 162 157 155 151 153 148 143 137 131 128 127 123 120 118 118 120 120 120 119 118 118 117 116 116 113 110 107 104 100 95 91
161 165 166 162 162 156 152 149 145 144 144 135 131 131 126 124 126 129 128 131 130 124 125 126 121 120 117 114 114 115 111 106 100
163 168 170 169 166 164 159 157 152 148 146 156 153 148 143 140 142 144 143 144 140 139 140 135 133 132 132 127 116 112 112 111 107
171 170 172 172 172 170 171 169 164 161 158 164 173 183 177 178 179 176 175 173 170 172 172 169 169 167 162 158 138 132 132 122 108
173 171 174 177 177 177 177 175 175 176 182 190 197 202 210 214 219 219 215 215 213 205 202 204 207 202 193 191 197 162 157 163 145
178 176 177 179 181 183 182 181 182 189 197 207 216 221 220 230 236 238 234 231 232 230 221 216 223 223 217 237 227 226 311 302 281
185 183 181 181 183 187 188 189 192 199 212 222 230 236 238 245 248 248 246 242 239 238 236 233 229 230 230 231 242 239 244 257 262
188 188 187 186 189 191 193 195 199 210 227 230 245 254 256 252 251 250 249 247 244 242 241 240 240 239 239 237 238 247 252 255 267
191 192 191 194 196 196 197 201 207 215 218 224 258 260 260 257 255 253 248 243 242 241 240 243 245 246 248 250 251 253 267 269 266
196 198 197 200 203 205 205 204 207 220 220 198 219 286 280 258 251 250 248 242 234 238 242 247 249 250 253 255 259 262 260 266 271
201 203 203 205 209 211 210 211 217 220 227 220 207 215 249 329 286 278 260 245 235 236 243 247 245 247 254 260 262 261 268 270 280
207 207 205 206 210 213 217 219 224 228 230 236 228 227 261 281 288 291 298 270 240 232 236 240 244 243 248 252 256 260 261 264 273
209 214 212 212 216 224 233 239 232 237 238 241 245 247 254 258 251 276 248 269 269 237 234 239 243 244 245 257 262 265 263 262 269